This is the latest recevied weather packets stored in our database for station/object SR9WXZ. If no packets are shown the sender has not sent any weather packets the latest 1 day(s).
| Time | Temp. | Humidity | Pressure | Rain* | Wind** | Luminosity | Snow |
|---|---|---|---|---|---|---|---|
| 1777995776 | 24.44° C | 100% | 0 hPa | - | 6.71 m/s, 125° | - | - |
| 1777995476 | 23.89° C | 100% | 0 hPa | - | 3.13 m/s, 124° | - | - |
| 1777995176 | 24.44° C | 100% | 0 hPa | - | 5.36 m/s, 121° | - | - |
| 1777994876 | 24.44° C | 100% | 0 hPa | - | 5.81 m/s, 126° | - | - |
| 1777994576 | 24.44° C | 100% | 0 hPa | - | 5.36 m/s, 128° | - | - |
| 1777994275 | 24.44° C | 100% | 0 hPa | - | 5.36 m/s, 124° | - | - |
| 1777993965 | 23.33° C | 100% | 0 hPa | - | 1.79 m/s, 123° | - | - |
| 1777993665 | 23.33° C | 100% | 0 hPa | - | 0.89 m/s, 117° | - | - |
| 1777993364 | 23.89° C | 100% | 0 hPa | - | 1.34 m/s, 119° | - | - |
| 1777993064 | 23.89° C | 100% | 0 hPa | - | 2.24 m/s, 116° | - | - |
| 1777992764 | 23.89° C | 100% | 0 hPa | - | 2.68 m/s, 119° | - | - |
| 1777992464 | 23.89° C | 100% | 0 hPa | - | 4.47 m/s, 124° | - | - |
| 1777992164 | 24.44° C | 100% | 0 hPa | - | 6.71 m/s, 126° | - | - |
| 1777991864 | 24.44° C | 100% | 0 hPa | - | 6.26 m/s, 127° | - | - |
| 1777991564 | 25° C | 100% | 0 hPa | - | 5.36 m/s, 126° | - | - |
| 1777991263 | 25° C | 100% | 0 hPa | - | 4.47 m/s, 116° | - | - |
| 1777990963 | 25° C | 100% | 0 hPa | - | 6.26 m/s, 124° | - | - |
| 1777990663 | 25° C | 100% | 0 hPa | - | 5.81 m/s, 123° | - | - |
| 1777990363 | 25° C | 100% | 0 hPa | - | 6.26 m/s, 127° | - | - |
| 1777990062 | 25.56° C | 100% | 0 hPa | - | 6.26 m/s, 123° | - | - |
| 1777989762 | 25.56° C | 100% | 0 hPa | - | 5.36 m/s, 127° | - | - |
| 1777989462 | 25° C | 100% | 0 hPa | - | 7.15 m/s, 125° | - | - |
| 1777989162 | 25.56° C | 100% | 0 hPa | - | 4.92 m/s, 125° | - | - |
| 1777988862 | 25° C | 100% | 0 hPa | - | 6.71 m/s, 124° | - | - |
| 1777988561 | 25.56° C | 100% | 0 hPa | - | 8.05 m/s, 123° | - | - |
* Rain since midnight (hover to see other rain measurements)
** Current wind speed in m/s (hover to see current wind gust speed)